Topeka Forbes, KS

11:01 PM CST on December 09, 2019 (GMT -0600)
Forbes

Weather History for KFOE - November, 2019

Change the Weather History Date:

Saturday, November 16, 2019

  Actual Average Record
Temperature  
Mean Temperature 46 °F -  
Max Temperature 60 °F 53 °F 80 °F (2016)
Min Temperature 32 °F 31 °F 8 °F (1955)
Degree Days  
Heating Degree Days 19    
Moisture  
Dew Point 28 °F    
Average Humidity 52    
Maximum Humidity 75    
Minimum Humidity 31    
Precipitation  
Precipitation 0.00 in - - ()
Sea Level Pressure  
Sea Level Pressure 30.12 in    
Wind  
Wind Speed 8 mph ()    
Max Wind Speed 18 mph    
Max Gust Speed 32 mph    
Visibility 10.0 miles    
Events      
Averages and records for this station are not official NWS values.
T = Trace of Precipitation, MM = Missing Value Source: Averaged Metar Reports

Daily Weather History Graph

Daily Weather History Graph

Search for Another Location

Airport or City:

Astronomy

Nov. 16, 2019 Rise Set
Actual Time 7:06 AM CST 5:08 PM CST
Civil Twilight 6:37 AM CST 5:36 PM CST
Nautical Twilight 6:05 AM CST 6:08 PM CST
Astronomical Twilight 5:33 AM CST 6:40 PM CST
Moon 8:42 PM CST (11/16) 11:00 AM CST (11/16)
Length of Visible Light 10h 58m
Length of Day
10h 01m
Waning Gibbous, 82% of the Moon is Illuminated
Nov 16
Waning Gibbous
Nov 19
Last Quarter
Nov 26
New
Dec 4
First Quarter
Dec 11
Full

Hourly Weather History & Observations

Time (CST) Temp. Windchill Dew Point Humidity Pressure Visibility Wind Dir Wind Speed Gust Speed Precip Events Conditions
12:53 AM 34.0 °F 28.0 °F 26.1 °F 73% 30.25 in 10.0 mi ESE 6.9 mph - N/A   Clear
1:53 AM 32.0 °F 26.4 °F 25.0 °F 75% 30.24 in 10.0 mi ESE 5.8 mph - N/A   Clear
2:53 AM 33.1 °F 27.7 °F 25.0 °F 72% 30.23 in 10.0 mi ESE 5.8 mph - N/A   Clear
4:53 AM 32.0 °F 26.4 °F 25.0 °F 75% 30.23 in 10.0 mi SE 5.8 mph - N/A   Clear
6:53 AM 33.1 °F 26.9 °F 25.0 °F 72% 30.24 in 10.0 mi SE 6.9 mph - N/A   Clear
7:53 AM 34.0 °F 28.0 °F 26.1 °F 73% 30.22 in 10.0 mi SE 6.9 mph - N/A   Clear
8:53 AM 43.0 °F 36.8 °F 28.9 °F 58% 30.21 in 10.0 mi SSE 11.5 mph - N/A   Clear
9:53 AM 48.9 °F - 28.0 °F 44% 30.18 in 10.0 mi South 18.4 mph 32.2 mph N/A   Clear
10:53 AM 54.0 °F - 28.9 °F 38% 30.16 in 10.0 mi South 13.8 mph 24.2 mph N/A   Clear
11:53 AM 57.0 °F - 28.0 °F 33% 30.12 in 10.0 mi SSE 17.3 mph 26.5 mph N/A   Clear
1:53 PM 60.1 °F - 28.9 °F 31% 30.06 in 10.0 mi SSE 15.0 mph - N/A   Clear
2:53 PM 60.1 °F - 28.9 °F 31% 30.03 in 10.0 mi SSE 13.8 mph - N/A   Clear
3:53 PM 57.9 °F - 28.0 °F 32% 30.02 in 10.0 mi SSE 15.0 mph 21.9 mph N/A   Clear
4:53 PM 55.0 °F - 28.0 °F 35% 30.01 in 10.0 mi SE 15.0 mph - N/A   Clear
5:53 PM 52.0 °F - 28.0 °F 40% 30.02 in 10.0 mi SE 10.4 mph - N/A   Clear
6:53 PM 50.0 °F - 28.0 °F 43% 30.03 in 10.0 mi SSE 9.2 mph - N/A   Clear
7:53 PM 46.0 °F 41.4 °F 28.0 °F 50% 30.04 in 10.0 mi SSE 9.2 mph - N/A   Clear
8:53 PM 45.0 °F 41.8 °F 28.9 °F 53% 30.05 in 10.0 mi SSE 5.8 mph - N/A   Clear
9:53 PM 44.1 °F 40.8 °F 28.9 °F 55% 30.05 in 10.0 mi SE 5.8 mph - N/A   Clear
10:53 PM 42.1 °F 37.7 °F 28.0 °F 58% 30.03 in 10.0 mi SSE 6.9 mph - N/A   Clear
11:53 PM 48.0 °F - 30.0 °F 50% 30.02 in 10.0 mi South 11.5 mph - N/A   Clear